STARLINK-5371, 55489

Orbit data source: Space-Track

STARLINK-5371, 55489 is a payload satellite owned by SpaceX/Seattle (US) in LEO that was launched on Thu, 02 Feb 2023 UTC via an FALCON 9 launch vehicle from the Air Force Eastern Test Range (AFETR). Payload-class satellites include a variety of spacecraft equipped with specific instruments for various scientific and technological missions. These include communications satellites like Starlink; space stations such as the ISS; scientific satellites like the Hubble; Earth observation satellites from companies like Planet Labs, Umbra, and HawkEye 360; GPS; miniature CubeSats for education and research; and military/defense satellites.

Loading next visibility...
Identifier
55489, 2023-015AS
Orbit
LEO
Country
Flag of USUS
Related business
Manufacturer
SpaceX/Seattle
Mission
Operational Commercial Communications
Bus & Motor
STARLINK, Unknown motor
Mass
305 kg wet, ~290 kg dry
Launch date (UTC)
2023-02-02 (3 years ago)
Launch vehicle
FALCON 9
Launch site
Air Force Eastern Test Range (AFETR)
Object type
Payload
Rocket body
Debris
Shape & HBR
Box + 1 Pan, 10.1 m
Radar Cross Section
13.562 m², Large (>1 m²)

Expand to show TLE details & history
Last TLE update: 7 hours ago

TLE from 7 hours ago
0 STARLINK-5371
1 55489U 23015AS  26036.71043310  .00003134  00000-0  24699-3 0  9992
2 55489  43.0033 152.7311 0001374 268.7810  91.2875 15.02537747165794
Epoch: 2026-02-05T17:03Z
TLE epoch observation values (Epoch: 2026-02-05T17:03:01.419Z)
Latitude
-0.00003°
Longitude
121.1164°
Altitude
558.874 km
Speed
7.584 km/s
True Right ascension
10h 10m 55s
True Declination
0° 00' 00"
Sunlit
Object was in full shadow at epoch
Visualization orbit readout
Latitude
Unknown
Longitude
Unknown
Altitude
Unknown
Speed
Unknown
Apparent Right ascension
Unknown
Apparent Declination
Unknown
Sunlit
N/A
Visualization observer readout
Local Sidereal Time
01:59:55
Azimuth
Unknown
Elevation
Unknown
Doppler factor
Unknown
Orbital elements
Apogee altitude
561.951 km
Perigee altitude
560.044 km
Semi-major axis
6,939.135 km
Eccentricity
0.00014
Inclination
43.0033°
RAAN
152.7311°
Arg. of periapsis
268.781°
True anomaly
91.30324°
Mean anomaly
91.2875°
Eccentric anomaly
91.29537°
Mean motion
3.75479 °/min
Orbital period
95.88 mins
BSTAR
0.00024699
Loading maneuver chart data...
Computing Atmospheric mass density...
Loading historical data...
Loading historical data...
Loading historical data...
Loading historical data...
Loading historical data...
Loading historical data...
Loading historical data...

Documentation

Showing up to 5 results
|